4P/Faye (2014)

Japanese version
Home page
Updated on July 20, 2014

---------------------------------------------------------------------

* Profile

* Pictures

* Orbital Elements

Epoch 2014 May 23.0 TT = JDT 2456800.5
T 2014 May 29.61545 TT                                  MPC
q   1.6550368            (2000.0)            P               Q
n   0.13120958     Peri.  205.06681     +0.71692434     -0.69521464
a   3.8355327      Node   199.27496     +0.66320329     +0.70307806
e   0.5684989      Incl.    9.05002     +0.21489740     +0.14952537
P   7.51
From 3495 observations 1998 May 24-2014 Jan. 21, mean residual 0".5.
     Nongravitational parameters A1 = +0.15, A2 = -0.0422.

* Finding Charts

* Magnitudes Graph

        m1 =   5.5 + 5 log d + 21.0 log r  [   ,240]  (             - 2015 Jan. 24)
        m1 =  10.3 + 5 log d + 10.0 log r  [240,   ]  (2015 Jan. 24 -             )

---------------------------------------------------------------------

The orbital elements are published on M.P.E.C. 2014-C43.
The charts are made with StellaNavigator Ver.8 (AstroArts).
The magnitudes graphs are made with Comet for Windows.

---------------------------------------------------------------------

Copyright(C) Seiichi Yoshida (comet@aerith.net). All rights reserved.